Hourly Data Report for September 14, 2017

All times are specified in Local Standard Time (LST). Add 1 hour to adjust for Daylight Saving Time where and when it is observed.

KAMLOOPS A
BRITISH COLUMBIA

50°42'09.000" N
120°26'55.000" W
345.30 m
1163781
71887
YKA

Download Data

Hourly Data (September 2017)
Hourly Data Report for September 14, 2017
Temp Definition
°C
Dew Point Temp Definition
°C
Rel Hum Definition
%
Wind Dir Definition
10's deg

Wind Spd Definition
km/h
Visibility Definition
km
Stn Press Definition
kPa
Hmdx Definition


Wind Chill Definition


Weather Definition


TIME
00:00 Legend Double Dagger 8.9 4.5 74 10 7 64.4 97.63     LegendNANA
01:00 Legend Double Dagger 8.9 4.4 73 36 1 64.4 97.64     Clear
02:00 Legend Double Dagger 7.6 2.8 72 36 3 64.4 97.65     LegendNANA
03:00 Legend Double Dagger 7.6 3.0 72 9 5 64.4 97.70     LegendNANA
04:00 Legend Double Dagger 6.3 2.3 76 7 7 64.4 97.75     Clear
05:00 Legend Double Dagger 5.4 2.1 79 1 4 64.4 97.78     LegendNANA
06:00 Legend Double Dagger 5.1 1.5 78 8 5 64.4 97.83     LegendNANA
07:00 Legend Double Dagger 8.8 4.7 76 9 14 64.4 97.87     Clear
08:00 Legend Double Dagger 10.8 4.5 65 10 16 64.4 97.87     LegendNANA
09:00 Legend Double Dagger 12.4 4.5 59 10 15 64.4 97.84     LegendNANA
10:00 Legend Double Dagger 14.7 3.3 46 12 9 64.4 97.80     Clear
11:00 Legend Double Dagger 17.2 2.4 37 12 9 64.4 97.73     LegendNANA
12:00 Legend Double Dagger 19.2 1.8 31 15 7 64.4 97.66     LegendNANA
13:00 Legend Double Dagger 20.4 0.3 26 10 8 64.4 97.61     Mainly Clear
14:00 Legend Double Dagger 20.7 -0.7 24 19 5 64.4 97.54     LegendNANA
15:00 Legend Double Dagger 21.5 -1.2 22 12 10 64.4 97.49     LegendNANA
16:00 Legend Double Dagger 21.1 -0.7 23 11 7 64.4 97.48     Mainly Clear
17:00 Legend Double Dagger 21.4 -0.6 23 8 8 64.4 97.51     LegendNANA
18:00 Legend Double Dagger 19.0 1.6 31 36 1 64.4 97.54     LegendNANA
19:00 Legend Double Dagger 17.2 -0.5 30 26 9 64.4 97.58     Mainly Clear
20:00 Legend Double Dagger 16.6 -1.3 29 13 9 64.4 97.62     LegendNANA
21:00 Legend Double Dagger 14.0 -0.5 37 26 4 64.4 97.66     LegendNANA
22:00 Legend Double Dagger 12.8 -0.6 39 27 10 64.4 97.70     Clear
23:00 Legend Double Dagger 11.5 -1.2 41 29 7 64.4 97.74     LegendNANA

Notes on Data Quality.

Legend

  • E = Estimated
  • M = Missing
  • NA = Not Available
  • ‡ = Partner data that is not subject to review by the National Climate Archives
Date modified: